Regional Weather Roundup
Issued by NWS Upton, NY

Current Version | Previous Version | Text Only | Print | Product List | Glossary On
Versions: 1 2 3 4 5 6 7 8 9 10 11 12 13 14 15 16 17 18 19 20 21 22 23 24 25 26 27 28 29 30 31 32 33 34 35 36 37 38 39 40 41 42 43 44 45 46 47 48 49 50
000
ASUS41 KOKX 220908
RWROKX

REGIONAL WEATHER ROUNDUP
NATIONAL WEATHER SERVICE NEW YORK NY
500 AM EDT SUN OCT 22 2017

NOTE: "FAIR" INDICATES FEW OR NO CLOUDS BELOW 12,000 FEET WITH NO
SIGNIFICANT WEATHER AND/OR OBSTRUCTIONS TO VISIBILITY.

NYZ071-072-176-178-NJZ106-104-221000-
NEW YORK CITY METRO AREA

CITY           SKY/WX    TMP DP  RH WIND       PRES   REMARKS
Central Park   CLEAR     60  49  66 CALM      30.39R
Bronx Bot Gard   N/A     52  46  82 N1        30.37S
LaGuardia APRT CLEAR     61  49  64 CALM      30.36R
Kennedy INTL   PTCLDY    51  49  92 CALM      30.37R
Breezy Point     N/A     59 N/A N/A W5          N/A
Newark/Liberty PTCLDY    53  45  74 CALM      30.36R
Teterboro      CLEAR     51  46  83 CALM      30.36R
$$

NYZ177-179-078>081-221000-
LONG ISLAND NEW YORK

CITY           SKY/WX    TMP DP  RH WIND       PRES   REMARKS
Jones Beach      N/A     57 N/A N/A MISG        N/A
Matinecock PT    N/A     59 N/A N/A MISG        N/A
Farmingdale    CLEAR     50  47  89 CALM      30.36S
MacArthur/ISP  CLEAR     50  49  96 CALM      30.36R
Shirley        CLEAR     50  48  93 CALM      30.36S
Mt Sinai Harb    N/A    N/A N/A N/A CALM        N/A
Westhampton    PTCLDY    40  38  93 CALM      30.37S
East Hampton   FAIR      42  42  97 CALM      30.36R
Montauk          N/A     56  55  97 S3        30.37R
$$

NYZ052-065-067-221000-
HUDSON VALLEY

CITY           SKY/WX    TMP DP  RH WIND       PRES   REMARKS
White Plains   PTCLDY    48  45  89 W3        30.36R
Larchmont Harb   N/A     54 N/A N/A MISG        N/A
Croton On Huds   N/A     50 N/A N/A NE3         N/A
Newburgh       CLEAR     34  45 100 W5        30.36S WCI  30
Montgomery     CLEAR     41  40  96 CALM      30.36R
Poughkeepsie   PTCLDY    42  40  92 CALM      30.36R
Albany         PTCLDY    44  41  89 CALM      30.37R
$$

NJZ001-105-106-008-010-013-015-019>022-104-221000-
NEW JERSEY

CITY           SKY/WX    TMP DP  RH WIND       PRES   REMARKS
Newark/Liberty PTCLDY    53  45  74 CALM      30.36R
Teterboro      CLEAR     51  46  83 CALM      30.36R
Caldwell       CLEAR     45  45 100 CALM      30.37S
Somerville     CLEAR     41  40  96 CALM      30.35S
Linden         FAIR      51  46  82 CALM      30.36S
Perth Amboy      N/A     52 N/A N/A NW3         N/A
Sussex         CLEAR     40  39  97 CALM      30.37R
Andover          N/A     42  41  96 CALM      30.37R
Trenton        CLEAR     47  44  90 CALM      30.36R
Millville      FOG       46  46 100 CALM      30.36R VSB 1/4
Atlantic City  FOG       47  47 100 CALM      30.36S VSB 1/4
Wrightstown    CLEAR     45  44  95 CALM      30.34R
Toms River     FOG       41  41 100 CALM      30.38R VSB 1/2
Belmar         CLEAR     50  48  93 CALM      30.37S
$$

PAZ047>061-062-071-221000-
EASTERN PENNSYLVANIA

CITY           SKY/WX    TMP DP  RH WIND       PRES   REMARKS
Philadelphia   PTCLDY    52  46  80 CALM      30.36S
Allentown      CLEAR     43  39  86 NW3       30.37R
Scranton       CLEAR     49  41  74 E6        30.37R
$$

CTZ002-004>006-009-010-012-RIZ004-006-007-MAZ004-011-015-221000-
SOUTHERN NEW ENGLAND
 IN CT

CITY           SKY/WX    TMP DP  RH WIND       PRES   REMARKS
Bradley INTL   CLOUDY    45  43  93 W3        30.36R
Hartford       CLOUDY    48  47  96 CALM      30.36S
Danbury        CLOUDY    42  40  92 CALM      30.38R
Wtrbury/Oxford CLOUDY    47  44  90 CALM      30.37R
Norwalk Harbor   N/A     50 N/A N/A NW5         N/A
Bridgeport     PTCLDY    49  45  86 CALM      30.36R
Meriden        MOCLDY    42  42 100 CALM      30.36S
New Haven      PTCLDY    45  43  93 CALM      30.36R
Chester        FAIR      55  43  62 CALM      30.36R
Groton         PTCLDY    49  47  93 N5        30.35S
Wilimantic     CLOUDY    44  42  93 CALM      30.37R

 IN RI

CITY           SKY/WX    TMP DP  RH WIND       PRES   REMARKS
Providence     CLOUDY    51  49  92 CALM      30.35S
Block Island   CLEAR     57  56  96 SW8       30.36R
Westerly       PTCLDY    45  43  93 CALM      30.36S
 IN MA

CITY           SKY/WX    TMP DP  RH WIND       PRES   REMARKS
Boston         CLOUDY    56  48  74 CALM      30.34S
Worcester      PTCLDY    57  39  51 NW8       30.36R
Westfield      CLOUDY    43  42  97 CALM      30.37R
Provincetown   PTCLDY    54  52  93 SW3       30.35R
Nantucket      CLEAR     57  57 100 SW8       30.36R
$$

ANZ330-335-338-340-345-350-353-355-221000-
COASTAL MARINE OBSERVATIONS


STATION/POSITION TIME  SKY/WX   TEMP    WIND        PRES    VSBY  WAVE
                                AIR SEA DIR/SP/G                  HT/PER
                 (UTC)          (F)     (DEG/KT/KT) (MB)    (MI)  (FT/S)
NY HARB ENTRANCE 0750            63 65  260/  6/  6 1027.3          1/ 8
20 S FIRE ISLAND 0750            64 64  260/  6/  6 1028.0          2/ 8
GREAT SOUTH BAY  0830            59 62  270/  2/  2   N/A
15 E BARNEGAT LI NOT AVBL
HUDSON CANYON    0750            64 65   CALM  /  2 1027.8          2/10
KINGS POINT      0830            58 65  170/  1/  3 1028.6
EXECUTION ROCKS  0830            60      30/  2/  4   N/A
WESTERN LI SOUND 0819            61      CALM  /  2   N/A           0
CENTRAL LI SOUND NOT AVBL
EASTERN LI SOUND NOT AVBL
ROBBINS REEF     0842            60     300/  4/  4 1028.4
$$


>>>>>>>>>>>>>>>>>>>>>>>>>>>> KEY <<<<<<<<<<<<<<<<<<<<<<<<<<<
>                                                          <
>     SKY/WX - Sky Condition/Present Weather               <
>     TMP    - Temperature in Fahrenheit                   <
>     DP     - Dew Point in Fahrenheit                     <
>     RH     - Relative Humidity in Percent                <
>     WIND   - Direction (from) and Speed in MPH           <
>     PRES   - Mean Sea Level Pressure (inches of Hg)      <
>     WCI    - Wind Chill Index                            <
>     VSB    - VISIBILITY IN MILES                         <
>     HX     - HEAT INDEX                                  <
>     TC     - TEMPERATURE IN CELSIUS                      <
>     VRB    - VARIABLE WIND DIRECTION                     <
>                                                          <
>>>>>>>>>>>>>>>>>>>>>>>>>>>> KEY <<<<<<<<<<<<<<<<<<<<<<<<<<<



USA.gov is the U.S. government's official web portal to all federal, state and local government web resources and services.